This is the latest recevied weather packets stored in our database for station/object KK7ZBX. If no packets are shown the sender has not sent any weather packets the latest 10 day(s).
| Time | Temp. | Humidity | Pressure | Rain* | Wind** | Luminosity | Snow |
|---|---|---|---|---|---|---|---|
| 1788147034 | 65° F | 52% | 763.5 mmHg | - | - | - | - |
| 1788145224 | 67° F | 51% | 763.5 mmHg | - | - | - | - |
| 1788139824 | 69° F | 50% | 763.7 mmHg | - | - | - | - |
| 1788132613 | 69° F | 51% | 764.2 mmHg | - | - | - | - |
| 1788129030 | 69° F | 52% | 764.7 mmHg | - | - | - | - |
| 1788127233 | 68° F | 54% | 764.8 mmHg | - | - | - | - |
| 1788121820 | 66° F | 61% | 765.3 mmHg | - | - | - | - |
| 1788120016 | 64° F | 64% | 765.5 mmHg | - | - | - | - |
| 1788114621 | 64° F | 66% | 765.6 mmHg | - | - | - | - |
| 1788112818 | 63° F | 68% | 765.7 mmHg | - | - | - | - |
| 1788111051 | 62° F | 69% | 765.7 mmHg | - | - | - | - |
| 1788111019 | 62° F | 69% | 765.7 mmHg | - | - | - | - |
| 1788103835 | 60° F | 74% | 765.7 mmHg | - | - | - | - |
| 1788102008 | 59° F | 76% | 765.7 mmHg | - | - | - | - |
| 1788098413 | 58° F | 76% | 765.4 mmHg | - | - | - | - |
| 1788096627 | 58° F | 76% | 765.3 mmHg | - | - | - | - |
| 1788093014 | 58° F | 76% | 765.2 mmHg | - | - | - | - |
| 1788089408 | 58° F | 76% | 765.4 mmHg | - | - | - | - |
| 1788087617 | 58° F | 75% | 765.2 mmHg | - | - | - | - |
| 1788085822 | 58° F | 74% | 765.4 mmHg | - | - | - | - |
| 1788082227 | 59° F | 72% | 765.1 mmHg | - | - | - | - |
| 1788075033 | 60° F | 71% | 765 mmHg | - | - | - | - |
| 1788073295 | 60° F | 70% | 764.9 mmHg | - | - | - | - |
| 1788073227 | 60° F | 70% | 764.9 mmHg | - | - | - | - |
| 1788067816 | 61° F | 72% | 764.5 mmHg | - | - | - | - |
* Rain since midnight (hover to see other rain measurements)
** Current wind speed in m/s (hover to see current wind gust speed)